Wind_Speed
18 11 14 18 18 10 10 4 7 7 11 17 13 14 18 24 19 21 12 17 13 21 23 23 23 19 18 19 20 19 16 14 16 18 15 17 9 11 8 5 8 6 1 2
11 16 19 21 16 6 10 17 5 9 13 10 15 14 17 21 14 8 6 6 5 17 21 24 23 21 21 22 19 20 18 15 19 15 10 12 14 14 13 8 6 8 6 7
17 17 19 19 15 10 19 16 9 5 12 23 16 10 13 15 9 9 15 15 12 5 16 19 28 24 25 22 19 17 17 19 16 15 13 15 16 11 14 7 8 6 4 5
17 17 20 19 13 14 13 4 20 19 4 2 14 6 11 12 15 23 21 32 24 19 18 27 22 26 25 21 17 19 17 17 20 18 13 12 14 11 8 6 7 9 8 6
15 15 14 19 16 11 13 6 7 14 4 6 15 5 6 12 17 23 30 37 33 23 33 24 18 23 30 22 18 16 14 16 18 19 17 14 15 11 10 10 10 14 11 11
16 17 11 9 6 15 2 7 13 11 4 5 24 9 6 11 26 20 28 32 38 27 29 23 11 24 28 23 23 20 16 14 18 19 16 15 14 12 12 10 10 8 7 8
17 8 9 11 17 16 6 8 6 5 9 11 14 11 8 27 22 26 28 34 36 30 29 28 25 19 27 23 24 23 18 16 14 16 17 15 14 14 14 13 9 11 10 11
13 9 12 9 14 12 10 14 10 10 2 10 16 9 12 30 28 30 38 37 37 36 35 30 24 25 28 24 20 25 20 18 18 14 15 14 13 13 9 12 13 10 12 13
13 15 18 14 14 14 13 13 20 23 11 12 2 3 18 9 16 22 29 31 36 37 38 32 24 32 34 29 21 26 20 17 17 16 14 14 13 13 9 9 14 10 8 8
5 14 18 17 15 16 16 11 10 11 8 11 4 8 3 3 14 8 26 31 35 34 37 34 26 26 35 34 32 25 20 17 20 19 15 13 12 14 17 17 16 13 10 5
13 9 2 11 13 13 11 14 11 12 11 10 4 6 8 10 6 14 20 32 30 38 36 36 31 22 19 36 33 29 23 21 21 21 15 14 12 8 9 13 16 15 14 14
14 14 12 15 13 13 15 15 16 9 10 11 12 6 19 18 15 11 47 22 34 35 35 32 28 22 22 24 36 28 25 20 23 21 20 17 15 15 13 10 10 13 14 17
10 7 8 2 12 15 12 11 12 17 14 13 11 6 16 21 27 45 27 23 33 32 30 28 25 22 18 22 23 20 16 22 20 21 21 18 19 19 14 10 9 8 11 17
8 10 7 5 8 10 12 13 18 15 13 13 10 11 8 12 4 15 14 33 34 32 29 24 22 17 14 12 14 16 11 28 24 24 22 19 19 19 18 15 14 15 11 15
5 9 2 2 4 7 21 16 17 16 13 11 13 8 6 10 19 26 14 26 27 29 29 27 24 17 13 15 14 20 19 19 21 18 16 18 21 19 19 18 16 15 15 13
5 9 9 11 5 11 15 8 11 6 15 12 16 4 12 13 12 31 51 17 18 21 20 24 17 15 16 15 16 13 11 14 14 16 15 20 23 23 21 21 17 20 16 15
5 7 8 12 8 12 11 10 10 10 10 7 15 13 16 12 19 31 22 3 13 15 12 14 13 12 13 15 18 18 18 19 19 19 20 18 18 20 23 23 20 19 18 15
10 5 7 10 9 12 7 16 17 16 7 7 9 13 20 12 12 12 5 5 10 12 16 14 14 14 19 20 19 16 15 14 14 14 15 17 18 19 20 20 20 20 19 18
9 3 7 8 11 8 7 10 11 20 4 10 7 11 23 18 12 6 2 4 10 14 15 16 14 11 9 7 10 12 14 14 14 14 14 16 13 11 18 24 17 14 15 16
7 4 6 10 12 9 7 1 14 19 4 18 12 7 17 31 4 4 13 11 12 13 11 9 8 8 7 11 12 13 13 11 12 12 11 11 9 9 10 11 13 14 12 16
5 6 11 10 12 4 5 1 3 8 5 10 11 12 13 13 17 15 14 14 7 6 9 9 10 10 12 13 17 17 11 11 12 9 9 8 6 5 8 15 12 9 11 14
11 10 10 7 12 5 8 6 5 3 5 6 8 11 13 12 18 17 15 14 13 13 12 10 10 10 11 13 15 19 18 13 10 11 7 5 6 7 10 11 8 8 8 7
7 7 9 2 2 4 6 8 3 4 2 3 5 7 4 15 15 16 20 17 15 14 14 13 12 11 10 9 9 11 10 13 12 10 9 8 9 9 8 8 10 9 10 8
3 10 3 9 1 9 16 7 8 4 3 2 2 6 8 16 12 14 13 15 18 18 18 16 15 15 14 12 10 9 11 12 11 10 11 9 8 9 10 12 13 10 13 11
4 6 2 7 2 5 7 10 5 4 3 5 3 6 11 15 13 15 17 19 19 19 17 15 15 13 13 11 10 10 7 5 8 7 7 7 8 6 7 8 10 10 14 15
7 4 4 1 10 7 6 12 14 1 4 5 2 13 13 11 15 17 15 14 13 15 16 15 14 13 12 11 10 9 8 9 7 6 10 8 5 5 4 5 7 10 11 12
Wind_Direction
201 213 217 223 232 254 209 183 229 125 298 171 147 151 170 184 234 258 143 173 189 173 161 160 156 149 153 161 170 160 163 162 160 144 133 144 151 156 168 174 140 147 144 179
183 220 228 234 230 194 262 265 175 106 303 203 156 154 176 185 212 128 144 206 309 168 167 158 152 163 154 170 179 179 179 169 152 148 168 175 166 169 164 154 203 171 171 156
222 212 228 240 235 217 240 265 101 81 167 249 140 141 175 179 181 131 187 217 252 224 180 163 161 167 171 180 182 189 183 174 157 166 173 169 167 176 186 204 185 161 193 198
232 236 198 237 225 245 242 82 135 144 256 157 189 139 186 184 192 178 178 189 205 225 191 186 176 173 177 172 173 187 198 178 163 173 175 180 172 181 177 165 203 191 197 208
219 238 205 226 218 235 255 180 126 105 9 45 214 91 179 184 219 206 189 204 214 214 192 211 198 185 182 170 174 179 196 180 178 169 179 180 171 176 187 210 194 202 195 204
242 225 211 246 229 242 255 223 178 114 93 285 251 158 173 200 222 205 203 210 206 204 208 218 214 199 171 169 171 181 199 192 182 185 175 174 190 195 195 198 211 217 223 219
234 228 164 244 234 224 244 243 230 233 188 235 147 190 140 208 206 197 196 203 204 200 202 205 216 184 160 187 176 179 195 194 183 180 182 183 180 188 179 191 184 200 207 228
218 188 241 194 251 218 195 244 247 213 301 323 327 350 160 186 199 187 188 200 198 187 196 209 171 171 180 197 171 178 190 197 188 190 184 182 184 185 188 186 192 197 232 201
217 244 177 194 231 247 216 223 256 280 37 278 164 183 164 179 212 192 182 191 193 191 196 205 195 202 199 196 197 186 193 185 180 195 191 187 181 170 185 198 183 170 233 204
248 286 170 201 197 230 257 276 235 246 241 259 283 174 237 171 352 198 176 193 193 189 192 203 189 188 192 212 187 184 199 191 180 186 204 196 183 186 193 204 176 185 197 232
294 290 139 179 200 230 215 248 267 288 257 247 139 214 131 101 163 279 284 189 186 185 189 197 192 174 202 184 198 188 185 182 177 189 189 193 187 209 205 192 199 200 194 198
256 305 179 243 216 223 254 220 240 254 259 274 292 315 127 106 86 2 277 182 177 184 188 189 192 196 212 208 186 192 177 184 177 184 195 196 182 203 225 232 200 205 207 198
346 266 255 16 295 201 232 267 247 242 262 271 278 123 171 165 165 202 211 159 165 173 181 183 186 189 190 203 216 147 182 197 186 191 197 202 205 197 209 213 203 213 225 213
309 294 107 229 302 316 307 248 266 244 224 251 268 134 105 49 43 359 160 154 160 166 172 175 176 176 189 202 168 184 234 191 191 196 194 203 215 209 209 211 218 214 229 218
299 294 316 15 219 304 280 288 233 254 275 292 88 32 347 79 50 11 318 146 159 160 170 171 164 154 174 153 175 190 194 195 204 227 193 211 212 210 204 214 216 214 227 216
223 277 297 271 262 239 264 295 312 268 239 273 289 345 104 109 84 43 317 104 146 153 151 155 169 174 170 165 178 168 180 198 216 232 221 219 222 219 214 211 220 223 219 221
249 277 295 284 289 271 242 287 266 276 284 8 39 10 52 100 134 142 217 216 141 147 144 162 169 173 164 172 179 187 190 202 213 221 222 218 219 220 222 214 214 209 210 213
240 234 280 288 290 246 36 12 349 245 48 27 31 29 55 67 96 125 152 184 168 146 144 142 146 160 179 177 200 203 202 208 209 218 219 228 216 220 220 220 222 219 212 211
284 299 288 283 268 263 16 14 351 342 347 48 41 77 90 70 22 36 192 117 141 136 142 153 166 174 184 197 183 192 196 205 205 217 228 236 230 215 213 221 191 199 203 203
262 266 256 270 288 305 360 312 336 314 93 10 1 353 125 108 241 141 108 112 109 138 160 197 187 189 192 171 170 181 183 192 194 200 212 214 213 203 201 195 180 191 189 200
298 243 272 273 266 119 136 57 357 287 25 7 349 350 44 69 76 116 108 97 109 120 136 155 167 179 188 184 182 175 160 196 196 194 195 200 215 214 229 239 235 153 152 165
301 297 302 298 304 254 171 249 286 90 281 357 338 10 83 102 107 111 111 105 101 100 111 128 144 158 171 181 192 176 180 186 171 169 186 188 209 199 178 170 174 133 172 195
247 274 304 179 318 180 215 174 213 334 51 1 326 294 115 132 122 124 126 127 116 110 106 109 114 120 126 146 176 189 175 162 159 152 155 156 163 156 147 138 158 165 170 145
12 16 345 16 212 84 6 291 140 150 122 9 346 35 90 130 125 130 144 142 128 122 118 116 113 110 106 102 109 124 138 133 127 139 143 141 144 139 149 159 162 164 149 133
63 133 223 265 83 15 60 342 75 67 37 61 41 112 127 135 137 145 144 141 135 133 128 129 126 122 119 116 120 114 110 109 122 129 119 138 151 176 194 186 179 181 177 177
267 157 193 65 101 96 322 329 328 310 42 35 37 122 123 137 140 147 151 154 145 146 145 139 134 130 123 120 123 124 135 133 112 109 101 94 40 17 260 211 217 205 203 206
Height
1491 1493 1491 1480 1472 1469 1476 1480 1494 1503 1513 1513 1515 1524 1526 1533 1533 1534 1533 1539 1542 1543 1548 1552 1556 1560 1564 1569 1573 1576 1576 1579 1581 1584 1586 1588 1589 1593 1593 1595 1597 1598 1593 1593
1485 1488 1477 1473 1468 1474 1478 1477 1485 1517 1494 1508 1515 1524 1524 1528 1531 1533 1535 1536 1545 1545 1548 1553 1555 1561 1563 1567 1572 1575 1576 1578 1581 1583 1587 1588 1589 1591 1594 1596 1598 1600 1601 1600
1478 1476 1474 1470 1472 1482 1476 1473 1490 1516 1520 1514 1511 1532 1526 1528 1533 1535 1538 1541 1546 1547 1549 1551 1554 1557 1561 1564 1569 1573 1575 1577 1580 1583 1585 1588 1590 1592 1594 1595 1597 1599 1601 1602
1473 1466 1468 1470 1473 1474 1480 1468 1495 1511 1531 1492 1501 1538 1534 1527 1531 1535 1540 1546 1548 1549 1548 1552 1554 1556 1558 1563 1566 1570 1573 1575 1577 1581 1585 1587 1589 1592 1593 1594 1596 1598 1599 1601
1472 1466 1465 1469 1468 1468 1474 1474 1490 1497 1507 1521 1505 1521 1528 1530 1531 1523 1532 1539 1545 1545 1545 1548 1551 1553 1560 1560 1562 1567 1571 1574 1576 1579 1582 1585 1588 1590 1593 1593 1596 1596 1598 1599
1464 1462 1462 1465 1467 1469 1466 1472 1480 1489 1519 1546 1500 1496 1531 1529 1516 1520 1526 1531 1537 1541 1541 1543 1549 1551 1554 1560 1563 1565 1569 1573 1574 1576 1580 1583 1586 1589 1590 1593 1594 1596 1597 1598
1468 1462 1464 1468 1471 1466 1472 1478 1499 1500 1508 1501 1456 1482 1500 1499 1493 1501 1508 1516 1525 1534 1539 1541 1550 1551 1549 1559 1562 1563 1566 1570 1573 1575 1578 1580 1584 1586 1589 1591 1593 1595 1597 1598
1479 1487 1469 1466 1468 1470 1477 1478 1488 1513 1500 1493 1462 1493 1478 1473 1475 1484 1496 1506 1516 1525 1534 1537 1542 1541 1549 1553 1555 1560 1564 1567 1571 1574 1577 1579 1581 1583 1587 1589 1591 1594 1595 1596
1472 1471 1459 1463 1467 1466 1469 1483 1467 1473 1506 1501 1483 1485 1476 1487 1481 1486 1493 1501 1507 1516 1526 1533 1536 1539 1545 1548 1556 1559 1562 1565 1569 1572 1575 1577 1579 1581 1585 1586 1590 1593 1594 1596
1466 1477 1454 1460 1464 1467 1466 1460 1480 1474 1509 1512 1482 1485 1483 1491 1500 1486 1492 1500 1505 1512 1522 1528 1530 1536 1541 1546 1555 1559 1562 1564 1567 1570 1573 1576 1578 1580 1582 1584 1588 1590 1593 1594
1468 1465 1466 1458 1467 1471 1472 1474 1468 1464 1468 1491 1514 1503 1481 1494 1499 1507 1498 1492 1499 1508 1516 1523 1531 1536 1540 1549 1550 1557 1558 1562 1566 1569 1571 1574 1577 1579 1580 1582 1585 1588 1590 1593
1468 1466 1479 1470 1455 1460 1458 1465 1467 1480 1485 1471 1472 1477 1486 1486 1484 1502 1498 1488 1494 1504 1512 1518 1527 1534 1537 1535 1542 1546 1552 1563 1561 1565 1570 1573 1576 1578 1579 1581 1583 1586 1588 1591
1475 1471 1479 1481 1467 1458 1465 1460 1458 1462 1461 1474 1481 1497 1486 1485 1486 1475 1481 1483 1491 1500 1511 1518 1526 1533 1532 1532 1534 1531 1541 1561 1563 1560 1566 1571 1574 1577 1578 1579 1581 1584 1587 1590
1481 1476 1493 1526 1497 1481 1478 1469 1461 1460 1475 1472 1468 1472 1475 1488 1480 1482 1474 1480 1486 1498 1508 1517 1524 1529 1529 1531 1534 1543 1538 1558 1556 1554 1559 1566 1570 1574 1577 1578 1580 1582 1584 1586
1483 1489 1485 1486 1481 1486 1486 1473 1465 1467 1463 1476 1482 1485 1478 1492 1495 1501 1491 1484 1492 1497 1505 1514 1522 1527 1529 1533 1538 1546 1547 1548 1550 1549 1553 1563 1567 1570 1574 1576 1577 1580 1582 1584
1483 1493 1489 1491 1486 1485 1484 1473 1468 1461 1465 1468 1468 1483 1485 1493 1488 1491 1480 1493 1503 1506 1509 1513 1520 1526 1531 1534 1537 1541 1544 1547 1550 1556 1560 1563 1564 1567 1569 1571 1574 1577 1580 1582
1486 1488 1492 1496 1481 1482 1492 1481 1474 1472 1466 1472 1495 1489 1490 1498 1495 1494 1504 1508 1506 1511 1513 1515 1520 1526 1531 1533 1537 1538 1542 1546 1551 1555 1558 1558 1560 1562 1565 1567 1570 1573 1576 1579
1494 1492 1492 1497 1489 1507 1484 1481 1476 1470 1473 1475 1484 1493 1499 1508 1510 1508 1511 1512 1513 1512 1513 1518 1522 1524 1527 1533 1537 1541 1543 1546 1550 1553 1555 1555 1556 1558 1560 1563 1566 1569 1572 1575
1486 1490 1497 1502 1497 1487 1490 1497 1498 1490 1484 1482 1487 1494 1503 1513 1520 1512 1517 1515 1514 1514 1516 1516 1518 1522 1527 1532 1536 1540 1542 1544 1547 1549 1551 1553 1555 1556 1558 1561 1562 1566 1568 1572
1487 1489 1499 1500 1507 1525 1506 1505 1499 1496 1503 1494 1493 1495 1502 1509 1531 1522 1522 1520 1521 1519 1519 1521 1520 1524 1528 1532 1537 1540 1543 1544 1546 1548 1550 1552 1553 1555 1558 1561 1560 1562 1564 1567
1496 1498 1501 1496 1498 1502 1504 1505 1507 1518 1518 1504 1504 1503 1505 1514 1513 1522 1522 1522 1519 1520 1520 1522 1523 1526 1531 1534 1538 1540 1543 1544 1546 1548 1550 1551 1553 1555 1558 1562 1564 1561 1564 1565
1507 1506 1503 1498 1504 1511 1510 1511 1512 1513 1512 1510 1510 1509 1511 1517 1520 1526 1528 1523 1524 1522 1523 1525 1527 1530 1533 1536 1538 1539 1542 1544 1547 1549 1551 1552 1555 1557 1559 1561 1564 1564 1566 1567
1510 1504 1507 1513 1511 1510 1509 1510 1513 1511 1512 1512 1512 1511 1511 1516 1519 1523 1523 1523 1525 1527 1528 1530 1531 1533 1536 1538 1540 1543 1544 1546 1547 1550 1553 1554 1557 1559 1561 1563 1564 1567 1569 1569
1499 1505 1507 1520 1510 1512 1516 1515 1512 1512 1513 1512 1512 1511 1511 1516 1521 1523 1525 1527 1528 1530 1531 1533 1535 1537 1540 1542 1544 1546 1548 1550 1551 1555 1556 1558 1560 1561 1563 1563 1565 1566 1569 1570
1505 1509 1511 1509 1516 1518 1520 1518 1504 1514 1515 1511 1512 1512 1514 1516 1521 1525 1528 1531 1532 1532 1534 1535 1537 1540 1542 1545 1548 1550 1553 1556 1556 1557 1560 1561 1563 1563 1565 1565 1567 1568 1569 1570
1501 1502 1510 1510 1522 1522 1520 1518 1516 1516 1516 1516 1515 1513 1518 1520 1522 1525 1530 1534 1536 1536 1537 1539 1541 1541 1542 1544 1548 1551 1555 1557 1559 1560 1562 1563 1565 1566 1568 1565 1568 1568 1569 1571